Regional Weather Roundup
Issued by NWS Sterling, VA

Home | Current Version | Previous Version | Graphics & Text | Print | Product List | Glossary On
Versions: 1 2 3 4 5 6 7 8 9 10 11 12 13 14 15 16 17 18 19 20 21 22 23 24 25 26 27
000
ASUS41 KLWX 222111
RWRLWX

REGIONAL WEATHER ROUNDUP
NATIONAL WEATHER SERVICE BALTIMORE MD/WASHINGTON DC
400 PM EST WED NOV 22 2017

Note: "FAIR" indicates few or no clouds below 12,000 feet
with no significant weather and/or obstructions to visibility.
 TC=TEMPERATURE CELSIUS

 * =Non NWS site. Station does not report precipitation (e.g. rain,
    snow, etc.), thunder, or fog.

DCZ001-MDZ009-015-VAZ040>042-051-053>054-222200-
WASHINGTON METRO

CITY           SKY/WX    TMP DP  RH WIND       PRES   REMARKS
WASHINGTON NAT PTCLDY    50  28  42 NW17      30.08R
DULLES         MOCLDY    47  28  47 N17G25    30.08R
ANDREWS AFB    MOCLDY    49  28  44 NW17G23   30.04R
FT BELVOIR     PTCLDY    50  28  43 NW17      30.07R
COLLEGE PARK*  CLEAR     49  27  43 NW10G17   30.06R
LEESBURG*      CLOUDY    46  32  57 N17G23    30.11R
MANASSAS*      PTCLDY    49  28  44 NW14G22   30.10R
GAITHERSBURG*  MOCLDY    45  28  51 NW10G20   30.08R

$$

MDZ006>007-011-014-222200-
BALTIMORE METRO

CITY           SKY/WX    TMP DP  RH WIND       PRES   REMARKS
BWI AIRPORT    PTCLDY    47  28  47 NW17G24   30.05R
MD SCIENCE CTR   N/A     50  28  42 MISG      30.04R
MARTIN STATE   PTCLDY    52  32  46 NW13G24   30.06R
ANNAPOLIS      CLEAR     51  33  50 NW15G25   30.04R
FORT MEADE*    CLEAR     46  28  49 NW15G22   30.08R

$$

MDZ012-015-019>023-222200-
MARYLAND EASTERN SHORE

CITY           SKY/WX    TMP DP  RH WIND       PRES   REMARKS
OCEAN CITY     CLEAR     54  37  52 NW13G24   29.97R
SALISBURY      CLEAR     52  34  50 NW17G29   29.99R
CAMBRIDGE*     CLEAR     52  32  46 NW16G24   30.02R
EASTON*        PTCLDY    50  30  46 NW14G26   30.06R

$$

MDZ017>025-222200-
SOUTHERN MARYLAND

CITY           SKY/WX    TMP DP  RH WIND       PRES   REMARKS
PATUXENT RIVER PTCLDY    51  33  50 NW23G30   30.03R
ST INIGOES     CLEAR     53  32  44 VRB7G20   30.02R
LEONARDTOWN*   CLEAR     50  32  50 NW7G18    30.05R

$$

MDZ003>005-222200-
NORTH CENTRAL MARYLAND

CITY           SKY/WX    TMP DP  RH WIND       PRES   REMARKS
FREDERICK*     MOCLDY    46  23  39 NW10G17   30.12R
HAGERSTOWN APT CLOUDY    43  26  51 NW20      30.10R
WESTMINSTER*   CLOUDY    46  30  53 NW12G18   30.05R

$$

MDZ501>502-222200-
WESTERN MARYLAND

CITY           SKY/WX    TMP DP  RH WIND       PRES   REMARKS
OAKLAND*       CLOUDY    27  21  80 NW10G21   30.05R WCI  17
CUMBERLAND*    CLOUDY    39  25  56 NW10G21   30.19R

$$

VAZ025>031-222200-
SHENANDOAH VALLEY

CITY           SKY/WX    TMP DP  RH WIND       PRES   REMARKS
WINCHESTER*    PTCLDY    41  27  56 NW13G24   30.11R
FRONT ROYAL*   PTCLDY    43  27  52 MISG      30.10R
LURAY*         CLEAR     43  28  56 NW13      30.11R
NEW MARKET*    CLEAR     42  22  46 N5        30.12R
STAUNTON*      CLEAR     44  22  42 N10G18    30.12R
WAYNESBORO*    CLEAR     46  22  39 NW9       30.08R

$$

WVZ021-048>050-054>055-222200-
EASTERN WEST VIRGINIA PANHANDLE

CITY           SKY/WX    TMP DP  RH WIND       PRES   REMARKS
MARTINSBURG    MOCLDY    43  24  47 NW12      30.11R
PETERSBURG*    CLOUDY    40  24  54 NW9       30.16R

$$

VAZ036>039-050-222200-
CENTRAL FOOTHILLS

CITY           SKY/WX    TMP DP  RH WIND       PRES   REMARKS
CHARLOTTESVILL CLEAR     51  24  34 N8        30.09R
CULPEPER*      CLEAR     49  24  37 N15       30.10R
ORANGE*        CLEAR     48  27  43 N9G17     30.08R
GORDONSVILLE*  CLEAR     51  25  36 NW9       30.08R
WARRENTON*     NOT AVBL

$$

VAZ055>057-222200-
NORTH AND CENTRAL PIEDMONT

CITY           SKY/WX    TMP DP  RH WIND       PRES   REMARKS
FREDERICKSBRG* CLEAR     51  30  44 N12       30.08R
STAFFORD*      CLEAR     48  28  44 NW13G24   30.12R

$$

NCZ024-NYZ072-PAZ021-071-VAZ022-071-222200-
OTHER REGIONAL OBSERVATIONS

CITY           SKY/WX    TMP DP  RH WIND       PRES   REMARKS
NEW YORK CITY  PTCLDY    47  30  51 NW9G25    29.97R
PHILADELPHIA   MOCLDY    48  30  49 N17G25    30.01R
PITTSBURGH     CLOUDY    33  25  72 W12       30.19R WCI  24
ROANOKE        SUNNY     49  24  37 NW16      30.12R
RICHMOND       PTCLDY    58  31  35 N17       30.02R
RALEIGH        PTSUNNY   61  32  33 N6        30.02R

$$

ANZ530>537-222200-
MARINE OBSERVATIONS

STATION/POSITION TIME  TEMP    WIND        PRES
                       AIR SEA DIR/SP/G
                 (UTC) (F)     (DEG/KT/KT) (MB)
THOMAS PT LIGHT  2100   49 53  320/ 16/ 19   N/A
BALT KEY BRIDGE  2048   49     330/ 20/ 22 1017.0R
COVE POINT       2048   51     350/ 26/ 30 1017.3R
LEWISETTA        2048   53 52  330/ 10/ 14 1016.8R
SOLOMONS ISLAND  2048   51 54  330/ 18/ 23 1016.6R
PINEY POINT      2048          360/ 21/ 24   N/A

$$





USA.gov is the U.S. government's official web portal to all federal, state and local government web resources and services.